Regional Weather Roundup
Issued by NWS Little Rock, AR

Home | Current Version | Previous Version | Text Only | Print | Product List | Glossary Off
Versions: 1 2 3 4 5 6 7 8 9 10 11 12 13 14 15 16 17 18 19 20 21 22 23 24 25 26 27 28 29 30 31 32 33 34 35 36 37 38 39 40 41 42 43 44 45 46 47 48 49 50

000
ASUS44 KLZK 301105
RWRLZK

WEATHER ROUNDUP FOR ARKANSAS
NATIONAL WEATHER SERVICE LITTLE ROCK AR
500 AM CST FRI JAN 30 2015

NOTE: "FAIR" INDICATES FEW OR NO CLOUDS BELOW 12,000 FEET WITH NO
SIGNIFICANT WEATHER AND/OR OBSTRUCTIONS TO VISIBILITY.

ARZ001-003-010-029-301200-
NORTHWEST ARKANSAS

CITY           SKY/WX    TMP DP  RH WIND       PRES   REMARKS
FAYETTEVILLE   CLEAR     23  21  92 CALM      30.48F
FORT SMITH     CLEAR     34  25  69 N3        30.49F
HARRISON       CLEAR     27  23  85 NW5       30.48R WCI  22
BENTONVILLE    CLEAR     27  21  80 CALM      30.48F
ROGERS         CLEAR     27  23  85 E5        30.48F WCI  22
SILOAM SPGS    CLEAR     27  18  69 NE3       30.50S
HIGHFILL       CLEAR     27  23  85 NE3       30.47F
$$

ARZ004-005-016-301200-
NORTH CENTRAL ARKANSAS

CITY           SKY/WX    TMP DP  RH WIND       PRES   REMARKS
BATESVILLE     CLEAR     32  25  74 NW5       30.49R WCI  27
FLIPPIN        CLEAR     30  21  69 NW3       30.49R
MTN HOME       CLEAR     26  24  92 NW3       30.48R
$$

ARZ040-041-301200-
WEST CENTRAL ARKANSAS

CITY           SKY/WX    TMP DP  RH WIND       PRES   REMARKS
MENA           CLEAR     37  30  75 NE3       30.45R
MOUNT IDA      PTCLDY    28  24  85 CALM      30.44R
$$

ARZ009-017-025-026-028-301200-
NORTHEAST ARKANSAS

CITY           SKY/WX    TMP DP  RH WIND       PRES   REMARKS
CORNING        FAIR      32  27  80 N5        30.48S WCI  27
JONESBORO      CLEAR     31  27  85 N5        30.47R WCI  26
NEWPORT        CLEAR     31  27  85 NW10      30.49R WCI  22
WALNUT RIDGE   CLEAR     28  21  74 NW3       30.47F
BLYTHEVILLE    MOCLDY    32  29  88 N9        30.46S WCI  24
$$

ARZ022-023-033-042-044-301200-
CENTRAL ARKANSAS

CITY           SKY/WX    TMP DP  RH WIND       PRES   REMARKS
LITTLE ROCK    CLEAR     33  26  75 N9        30.49S WCI  25
N LITTLE ROCK    N/A     35  29  81 N7        30.49S WCI  29
JACKSONVILLE   CLEAR     33  26  76 NW5       30.49R WCI  28
SEARCY         CLEAR     31  26  82 CALM      30.51R
HOT SPRINGS    CLEAR     37  28  70 N3        30.46F
RUSSELLVILLE   CLEAR     27  24  89 CALM      30.50R
CLINTON        FAIR      30  27  86 CALM      30.52R
$$

ARZ036-301200-
EAST ARKANSAS

CITY           SKY/WX    TMP DP  RH WIND       PRES   REMARKS
WEST MEMPHIS   CLEAR     34  29  82 N8        30.44R WCI  27
$$

ARZ050-053-066-070-073-301200-
SOUTHWEST ARKANSAS

CITY           SKY/WX    TMP DP  RH WIND       PRES   REMARKS
ARKADELPHIA    FAIR      31  31 100 CALM      30.49R
CAMDEN         CLEAR     30  27  86 MISG      30.47F
TEXARKANA      CLEAR     33  30  88 CALM      30.47R
EL DORADO      CLEAR     35  29  78 N5        30.46R WCI  31
DE QUEEN       PTCLDY    30  28  92 CALM      30.46R
$$

ARZ056-057-069-301200-
SOUTHEAST ARKANSAS

CITY           SKY/WX    TMP DP  RH WIND       PRES   REMARKS
PINE BLUFF     CLEAR     36  28  73 N10       30.46F
STUTTGART      CLEAR     34  27  75 N12       30.48R WCI  25
MONTICELLO     CLEAR     35  29  78 VRB3      30.45R

$$




USA.gov is the U.S. government's official web portal to all federal, state and local government web resources and services.